Location: Bijele Vode
(45.2833°N, 16.2000°E)
Time: 14:03:07
(UTC+00:00)

Cosmos 2026 Rocket - Pass Details

Date: 18 September 2020
Orbit: 940 x 1000 km, 82.9° (Epoch: 29 October)

Event Time Altitude Azimuth Distance (km) Brightness Sun altitude
Rises 19:57:06 0° 348° (NNW) 3,717 7.7 -29.8°
Reaches altitude 10° 19:59:40 10° 345° (NNW) 2,770 7.0 -30.1°
Maximum altitude 20:05:54 59° 268° (W) 1,142 4.4 -31.0°
Enters shadow 20:06:55 53° 230° (SW) 1,216 4.4 -31.1°
